Location: ????????
(37.6846°N, 24.0673°E)
Time: 14:43:57
(UTC+00:00)

Cosmos 1300 Rocket - Pass Details

Date: 14 July 2020
Orbit: 601 x 627 km, 82.5° (Epoch: 03 August)

Event Time Altitude Azimuth Distance (km) Brightness Sun altitude
Rises 02:38:15 0° 192° (SSW) 2,889 6.6 -6.8°
Reaches altitude 10° 02:40:29 10° 195° (SSW) 1,983 5.7 -6.4°
Maximum altitude 02:44:51 68° 278° (W) 669 3.6 -5.7°
Drops below altitude 10° 02:49:14 10° 2° (N) 1,982 6.7 -5.0°
Sets 02:51:28 0° 5° (N) 2,887 7.6 -4.6°
